JAF7CB LEMG-EBOS

Flight info

Callsign JAF7CB
Flight time N/A
Altitude 36000
Route BLN DCT MORAL DCT BEXID DCT VTB DCT RBO N867 DGO DCT CEGAM L176 LUSEM DCT LULUT DCT ADABI DCT BOKNO UN858 VANAD UN874 BAMES UT191 PODEM UN873 BAZOS DCT BELDI DCT VEKIN DCT ADUTO N873 FERDI
Aircraft B38M/M-SDE1FGHILORVWXY/HB1

Departure

Time 2026-05-05 10:12
Airport Málaga-Costa del Sol Airport (LEMG)

Arrival

Time N/A
Airport Ostend-Bruges International Airport (EBOS)
Time Latitude Longitude Altitude Speed Heading
2026-05-05 09:51 36.67809 -4.49669 52 ft 0 kts 134°
2026-05-05 10:03 36.67820 -4.49684 52 ft 4 kts 126°
2026-05-05 10:03 36.67831 -4.49713 53 ft 4 kts 98°
2026-05-05 10:03 36.67827 -4.49741 53 ft 4 kts 47°
2026-05-05 10:04 36.67824 -4.49746 54 ft 1 kts 41°
2026-05-05 10:07 36.67828 -4.49743 54 ft 1 kts 16°
2026-05-05 10:07 36.67864 -4.49740 53 ft 11 kts
2026-05-05 10:08 36.67959 -4.49677 50 ft 21 kts 41°
2026-05-05 10:08 36.68087 -4.49535 50 ft 27 kts 41°
2026-05-05 10:08 36.68235 -4.49377 48 ft 27 kts 40°
2026-05-05 10:08 36.68252 -4.49191 49 ft 24 kts 117°
2026-05-05 10:09 36.68172 -4.48994 49 ft 26 kts 116°
2026-05-05 10:09 36.68084 -4.48778 45 ft 29 kts 121°
2026-05-05 10:09 36.67986 -4.48558 44 ft 29 kts 117°
2026-05-05 10:09 36.67891 -4.48332 48 ft 29 kts 117°
2026-05-05 10:10 36.67818 -4.48152 43 ft 18 kts 116°
2026-05-05 10:10 36.67822 -4.48094 45 ft 4 kts 42°
2026-05-05 10:10 36.67862 -4.48067 44 ft 10 kts 27°
2026-05-05 10:10 36.67937 -4.48030 43 ft 11 kts 356°
2026-05-05 10:11 36.67970 -4.48071 42 ft 6 kts 294°
2026-05-05 10:11 36.68066 -4.48306 42 ft 66 kts 297°
2026-05-05 10:11 36.68389 -4.49074 52 ft 131 kts 298°
2026-05-05 10:11 36.68892 -4.50288 110 ft 177 kts 297°
2026-05-05 10:12 36.69497 -4.51617 964 ft 171 kts 308°
2026-05-05 10:12 36.70292 -4.52643 1874 ft 169 kts 313°
2026-05-05 10:12 36.71169 -4.53773 2283 ft 192 kts 312°
2026-05-05 10:12 36.72148 -4.55046 2747 ft 213 kts 311°
2026-05-05 10:13 36.73161 -4.56376 3674 ft 210 kts 311°
2026-05-05 10:13 36.74177 -4.57719 4473 ft 215 kts 311°
2026-05-05 10:13 36.75285 -4.59001 5251 ft 221 kts 327°
2026-05-05 10:13 36.76735 -4.59680 6063 ft 226 kts 340°
2026-05-05 10:14 36.78252 -4.60268 6782 ft 230 kts 340°
2026-05-05 10:14 36.79799 -4.60849 7473 ft 236 kts 343°
2026-05-05 10:14 36.81512 -4.60877 7800 ft 264 kts 12°
2026-05-05 10:14 36.83134 -4.59756 8534 ft 267 kts 41°
2026-05-05 10:15 36.84501 -4.58203 9335 ft 273 kts 39°
2026-05-05 10:15 36.85955 -4.56627 9965 ft 280 kts 39°
2026-05-05 10:15 36.87434 -4.55010 10677 ft 285 kts 39°
2026-05-05 10:15 36.88936 -4.53361 11341 ft 290 kts 39°
2026-05-05 10:16 36.90465 -4.51681 12019 ft 295 kts 39°
2026-05-05 10:16 36.92021 -4.49968 12699 ft 300 kts 39°
2026-05-05 10:16 36.93600 -4.48226 13379 ft 305 kts 39°
2026-05-05 10:16 36.95202 -4.46459 14066 ft 308 kts 39°
2026-05-05 10:17 36.96825 -4.44667 14643 ft 314 kts 38°
2026-05-05 10:17 36.98502 -4.42907 15197 ft 318 kts 31°
2026-05-05 10:17 37.00416 -4.41390 15429 ft 335 kts 28°
2026-05-05 10:17 37.02459 -4.39801 15581 ft 355 kts 28°
2026-05-05 10:18 37.04608 -4.38110 15719 ft 375 kts 28°
2026-05-05 10:18 37.06862 -4.36322 15845 ft 393 kts 29°
2026-05-05 10:18 37.09212 -4.34453 16111 ft 405 kts 29°
2026-05-05 10:18 37.11603 -4.32549 16661 ft 408 kts 29°
2026-05-05 10:19 37.13982 -4.30655 17127 ft 413 kts 29°
2026-05-05 10:19 37.16419 -4.28712 17634 ft 416 kts 29°
2026-05-05 10:19 37.18868 -4.26758 18099 ft 419 kts 29°
2026-05-05 10:19 37.21348 -4.24777 18570 ft 423 kts 28°
2026-05-05 10:20 37.22996 -4.23461 18872 ft 425 kts 28°